Stündliche Wetter Holudza

Heute, 15 Juni, Dienstag

Zeit Temperatur Niederschläge Wind Luftdruck Luftfeuchtigkeit
00:00 +13°C° 0 mm 1 m/S 746 mmHg 83%
01:00 +12°C° 0 mm 1 m/S 746 mmHg 84%
02:00 +12°C° 0 mm 1 m/S 746 mmHg 85%
03:00 +12°C° 0 mm 1 m/S 746 mmHg 86%
04:00 +12°C° 0 mm 1 m/S 746 mmHg 86%
05:00 +13°C° 0 mm 1 m/S 746 mmHg 81%
06:00 +15°C° 0 mm 1 m/S 747 mmHg 76%
07:00 +18°C° 0 mm 1 m/S 747 mmHg 71%
08:00 +20°C° 0 mm 1 m/S 747 mmHg 65%
09:00 +21°C° 0 mm 1 m/S 747 mmHg 60%
10:00 +22°C° 0 mm 1 m/S 747 mmHg 54%
11:00 +23°C° 0 mm 1 m/S 746 mmHg 52%
12:00 +24°C° 0 mm 1 m/S 746 mmHg 50%
13:00 +24°C° 0 mm 1 m/S 746 mmHg 47%
14:00 +24°C° 0 mm 1 m/S 745 mmHg 48%
15:00 +24°C° 0 mm 2 m/S 745 mmHg 49%
16:00 +24°C° 0 mm 2 m/S 745 mmHg 50%
17:00 +23°C° 0 mm 2 m/S 745 mmHg 57%
18:00 +21°C° 0 mm 2 m/S 745 mmHg 63%
19:00 +20°C° 0 mm 1 m/S 745 mmHg 70%
20:00 +19°C° 0 mm 1 m/S 745 mmHg 72%
21:00 +18°C° 0 mm 1 m/S 745 mmHg 73%
22:00 +16°C° 0 mm 1 m/S 745 mmHg 75%
23:00 +16°C° 0 mm 1 m/S 745 mmHg 76%

Morgen, 16 Juni, Mittwoch

Zeit Temperatur Niederschläge Wind Luftdruck Luftfeuchtigkeit
00:00 +16°C° 0 mm 1 m/S 745 mmHg 78%
01:00 +14°C° 0 mm 0 m/S 745 mmHg 79%
02:00 +15°C° 0 mm 0 m/S 745 mmHg 79%
03:00 +16°C° 0 mm 1 m/S 745 mmHg 79%
04:00 +16°C° 0 mm 1 m/S 745 mmHg 79%
05:00 +18°C° 0 mm 1 m/S 746 mmHg 77%
06:00 +19°C° 0 mm 1 m/S 746 mmHg 75%
07:00 +20°C° 0 mm 1 m/S 746 mmHg 74%
08:00 +22°C° 0.2 mm 1 m/S 746 mmHg 72%
09:00 +23°C° 0.2 mm 1 m/S 746 mmHg 69%
10:00 +24°C° 0.2 mm 1 m/S 746 mmHg 67%
11:00 +24°C° 0.3 mm 1 m/S 746 mmHg 66%
12:00 +25°C° 0.3 mm 2 m/S 746 mmHg 65%
13:00 +25°C° 0.3 mm 2 m/S 746 mmHg 64%
14:00 +25°C° 0.2 mm 3 m/S 746 mmHg 65%
15:00 +25°C° 0.2 mm 3 m/S 746 mmHg 65%
16:00 +25°C° 0.2 mm 4 m/S 746 mmHg 65%
17:00 +24°C° 0.1 mm 3 m/S 746 mmHg 71%
18:00 +21°C° 0.1 mm 3 m/S 746 mmHg 77%
19:00 +20°C° 0.1 mm 3 m/S 746 mmHg 83%
20:00 +19°C° 0 mm 3 m/S 746 mmHg 86%
21:00 +18°C° 0 mm 3 m/S 747 mmHg 89%
22:00 +16°C° 0 mm 2 m/S 747 mmHg 93%
23:00 +16°C° 0 mm 2 m/S 747 mmHg 92%

übermorgen, 17 Juni, Donnerstag

Zeit Temperatur Niederschläge Wind Luftdruck Luftfeuchtigkeit
00:00 +15°C° 0 mm 2 m/S 747 mmHg 92%
01:00 +15°C° 0 mm 2 m/S 747 mmHg 91%
02:00 +15°C° 0 mm 2 m/S 747 mmHg 92%
03:00 +14°C° 0 mm 2 m/S 747 mmHg 93%
04:00 +13°C° 0 mm 3 m/S 747 mmHg 94%
05:00 +16°C° 0 mm 3 m/S 747 mmHg 89%
06:00 +18°C° 0 mm 3 m/S 748 mmHg 83%
07:00 +20°C° 0 mm 3 m/S 748 mmHg 78%
08:00 +21°C° 0 mm 4 m/S 748 mmHg 73%
09:00 +22°C° 0 mm 4 m/S 748 mmHg 68%
10:00 +25°C° 0 mm 5 m/S 748 mmHg 64%
11:00 +26°C° 0 mm 5 m/S 748 mmHg 61%
12:00 +26°C° 0 mm 4 m/S 748 mmHg 59%
13:00 +27°C° 0 mm 4 m/S 748 mmHg 57%
14:00 +27°C° 0 mm 4 m/S 747 mmHg 57%
15:00 +27°C° 0 mm 4 m/S 747 mmHg 57%
16:00 +27°C° 0 mm 4 m/S 747 mmHg 58%
17:00 +26°C° 0 mm 4 m/S 747 mmHg 65%
18:00 +25°C° 0 mm 3 m/S 747 mmHg 72%
19:00 +22°C° 0 mm 3 m/S 747 mmHg 79%
20:00 +21°C° 0 mm 3 m/S 747 mmHg 83%
21:00 +20°C° 0 mm 3 m/S 747 mmHg 86%
22:00 +19°C° 0 mm 3 m/S 747 mmHg 90%
23:00 +18°C° 0 mm 3 m/S 747 mmHg 91%

18 Juni, Freitag

Zeit Temperatur Niederschläge Wind Luftdruck Luftfeuchtigkeit
00:00 +18°C° 0 mm 3 m/S 747 mmHg 92%
01:00 +18°C° 0 mm 2 m/S 747 mmHg 93%
02:00 +17°C° 0 mm 3 m/S 747 mmHg 93%
03:00 +17°C° 0 mm 3 m/S 747 mmHg 94%
04:00 +17°C° 0 mm 3 m/S 747 mmHg 94%
05:00 +19°C° 0 mm 4 m/S 747 mmHg 88%
06:00 +20°C° 0 mm 4 m/S 747 mmHg 82%
07:00 +22°C° 0 mm 5 m/S 747 mmHg 76%
08:00 +24°C° 0 mm 6 m/S 747 mmHg 71%
09:00 +26°C° 0 mm 6 m/S 747 mmHg 65%
10:00 +27°C° 0 mm 6 m/S 747 mmHg 60%
11:00 +28°C° 0 mm 6 m/S 747 mmHg 58%
12:00 +29°C° 0 mm 6 m/S 746 mmHg 56%
13:00 +29°C° 0 mm 6 m/S 746 mmHg 54%
14:00 +29°C° 0 mm 5 m/S 746 mmHg 56%
15:00 +29°C° 0 mm 5 m/S 746 mmHg 58%
16:00 +29°C° 0 mm 5 m/S 746 mmHg 61%
17:00 +27°C° 0 mm 4 m/S 746 mmHg 66%
18:00 +26°C° 0 mm 4 m/S 746 mmHg 72%
19:00 +23°C° 0 mm 4 m/S 746 mmHg 77%
20:00 +22°C° 0 mm 4 m/S 746 mmHg 82%
21:00 +21°C° 0 mm 4 m/S 746 mmHg 86%
22:00 +20°C° 0 mm 4 m/S 746 mmHg 90%
23:00 +20°C° 0 mm 3 m/S 746 mmHg 92%

19 Juni, Samstag

Zeit Temperatur Niederschläge Wind Luftdruck Luftfeuchtigkeit
00:00 +19°C° 0 mm 3 m/S 746 mmHg 93%
01:00 +18°C° 0 mm 3 m/S 746 mmHg 95%
02:00 +18°C° 0 mm 2 m/S 746 mmHg 96%
03:00 +18°C° 0 mm 2 m/S 746 mmHg 96%
04:00 +17°C° 0 mm 2 m/S 746 mmHg 97%
05:00 +19°C° 0 mm 2 m/S 746 mmHg 91%
06:00 +20°C° 0 mm 2 m/S 746 mmHg 86%
07:00 +23°C° 0 mm 2 m/S 746 mmHg 81%
08:00 +24°C° 0 mm 2 m/S 746 mmHg 76%
09:00 +26°C° 0 mm 2 m/S 746 mmHg 70%
10:00 +28°C° 0 mm 2 m/S 746 mmHg 65%
11:00 +29°C° 0 mm 2 m/S 746 mmHg 62%
12:00 +29°C° 0 mm 2 m/S 746 mmHg 58%
13:00 +30°C° 0 mm 2 m/S 746 mmHg 55%
14:00 +30°C° 0 mm 2 m/S 746 mmHg 54%
15:00 +31°C° 0 mm 2 m/S 746 mmHg 53%
16:00 +31°C° 0 mm 2 m/S 746 mmHg 52%
17:00 +29°C° 0 mm 2 m/S 746 mmHg 61%
18:00 +27°C° 0 mm 3 m/S 746 mmHg 69%
19:00 +26°C° 0 mm 3 m/S 746 mmHg 78%
20:00 +24°C° 0 mm 2 m/S 746 mmHg 82%
21:00 +23°C° 0 mm 2 m/S 746 mmHg 87%
22:00 +21°C° 0 mm 2 m/S 746 mmHg 91%
23:00 +20°C° 0 mm 2 m/S 746 mmHg 92%

20 Juni, Sonntag

Zeit Temperatur Niederschläge Wind Luftdruck Luftfeuchtigkeit
00:00 +21°C° 0 mm 1 m/S 746 mmHg 93%
01:00 +20°C° 0 mm 1 m/S 746 mmHg 93%
02:00 +20°C° 0 mm 1 m/S 746 mmHg 94%
03:00 +20°C° 0 mm 1 m/S 746 mmHg 94%
04:00 +20°C° 0 mm 1 m/S 746 mmHg 95%
05:00 +21°C° 0 mm 1 m/S 746 mmHg 90%
06:00 +23°C° 0 mm 1 m/S 746 mmHg 85%
07:00 +24°C° 0 mm 1 m/S 746 mmHg 80%
08:00 +26°C° 0 mm 1 m/S 746 mmHg 75%
09:00 +27°C° 0 mm 2 m/S 746 mmHg 70%
10:00 +29°C° 0 mm 2 m/S 746 mmHg 65%
11:00 +30°C° 0 mm 1 m/S 746 mmHg 60%
12:00 +31°C° 0 mm 1 m/S 746 mmHg 55%
13:00 +32°C° 0 mm 1 m/S 746 mmHg 51%
14:00 +32°C° 0 mm 1 m/S 746 mmHg 50%
15:00 +32°C° 0 mm 1 m/S 745 mmHg 49%
16:00 +32°C° 0 mm 1 m/S 745 mmHg 49%
17:00 +30°C° 0 mm 2 m/S 745 mmHg 57%
18:00 +28°C° 0 mm 2 m/S 745 mmHg 65%
19:00 +27°C° 0 mm 2 m/S 745 mmHg 73%
20:00 +25°C° 0 mm 2 m/S 745 mmHg 78%
21:00 +24°C° 0 mm 2 m/S 745 mmHg 83%
22:00 +23°C° 0 mm 2 m/S 745 mmHg 87%
23:00 +21°C° 0 mm 2 m/S 745 mmHg 89%
Mehr zeigen

Wir brauchen deine Erlaubnis

Meteoprog und unser Service Anbieter werden persönliche Daten aufbewahren, so wie Cookies, Geräte Bezeichnung oder ähnliche Technologien von deinem Gerät und Prozess, so wie Persönliche Daten Inhalte und Werbungen, genauso wie social Media und den Verkehr zu analysieren.

  • Aufbewahrung und/oder Zugang zu deiner Geräte Informationen.

    Cookies, Geräte Bezeichnung oder andere Informationen, können aufbewahrt oder Zugang zu deinem Gerät erhalten, für den Grund, der oben angegeben wird.

  • Personalisierte Werbung und Inhalte, Messungen, Einblick in das Publikum und Produkt Entwicklung.

    Werbungen und Inhalte können personalisiert werden, basierend auf ein Profil. Mehr Daten können besser personalisierte Werbungen und Inhalte hinzufügen. Werbung und Inhalte können gezeigt und gemessen werden. Einblicke über das Publikum, welche die Werbung gesehen haben und den Inhalt, können abgeleitet werden. So wie Daten können genutzt werden, um es zu verbessern oder die Benutzer Erfahrung zu verbessern das System und die Software.

Wenn du “Ich stimme zu” klickst, erlaubst du uns, die Cookies zu benutzen die Geräte Bezeichnung, den Web oder ähnliche Technologien zu benutzen. Deine Settings, können in deinem Gerät bei deinem Browser geändert werden.

Für den bestimmten Zweck, berechtigten Interessen beruhen darauf, mehr als auf den Inhalt. Du kannst mehr darüber in unseren Privaten und Cookie Politik lesen.